Simultaneous Nadir Overpasses (SNOs) Predictions

Prediction of SNOs between GOES-16 and AQUA Satellite Orbit:

Table of predicted SNOs for the next 14.0 days since TLE Epoch: 4/1/2023
Index Date Time (GOES-16) GOES-16 Lat,Lon AQUA Lat,Lon Distance(km) Time Diff (sec)
1 04/02/2023 18:37:38 0.05, -75.21 0.48, -73.17 231.34 80
2 04/03/2023 07:01:09 -0.04, -75.22 0.62, -78.22 342.00 80
3 04/05/2023 06:44:45 -0.04, -75.24 -0.12, -74.88 41.12 80
4 04/07/2023 06:31:00 -0.04, -75.26 -0.86, -71.53 425.12 80
5 04/07/2023 18:54:39 0.04, -75.26 -0.27, -76.60 153.22 80
6 04/09/2023 18:38:12 0.04, -75.28 0.45, -73.24 231.61 80
7 04/10/2023 07:01:42 -0.04, -75.30 0.60, -78.30 341.04 80
8 04/12/2023 06:45:14 -0.03, -75.32 -0.14, -74.93 44.46 80
9 04/14/2023 06:31:25 -0.03, -75.35 -0.82, -71.56 430.83 80
10 04/14/2023 18:55:03 0.02, -75.35 -0.23, -76.64 146.83 80
